Lake Jackson Weather Center

Moon Phase Calendar



Lake Jackson Water Level
Online Cameras

 


      

Current Conditions in Opp
8/15/2022 2:14:29 AM

74°F
Feels Like 75
Clear
Humidity
94%
Pressure
29.94"
Wind
0
Dew Point
72°F
UV Index
0/10 (Low)
Visibility
6 mi

Hourly Forecast

Date & Time Mon, Aug 15
2:00 AM
Mon, Aug 15
3:00 AM
Mon, Aug 15
4:00 AM
Mon, Aug 15
5:00 AM
Mon, Aug 15
6:00 AM
Mon, Aug 15
7:00 AM
Mon, Aug 15
8:00 AM
Mon, Aug 15
9:00 AM
Mon, Aug 15
10:00 AM
Mon, Aug 15
11:00 AM
Mon, Aug 15
12:00 PM
Mon, Aug 15
1:00 PM
Mon, Aug 15
2:00 PM
Mon, Aug 15
3:00 PM
Mon, Aug 15
4:00 PM
Mon, Aug 15
5:00 PM
Mon, Aug 15
6:00 PM
Mon, Aug 15
7:00 PM
Mon, Aug 15
8:00 PM
Mon, Aug 15
9:00 PM
Mon, Aug 15
10:00 PM
Mon, Aug 15
11:00 PM
Tue, Aug 16
12:00 AM
Tue, Aug 16
1:00 AM
Tue, Aug 16
2:00 AM
Tue, Aug 16
3:00 AM
Tue, Aug 16
4:00 AM
Tue, Aug 16
5:00 AM
Tue, Aug 16
6:00 AM
Tue, Aug 16
7:00 AM
Tue, Aug 16
8:00 AM
Tue, Aug 16
9:00 AM
Tue, Aug 16
10:00 AM
Tue, Aug 16
11:00 AM
Tue, Aug 16
12:00 PM
Tue, Aug 16
1:00 PM
Tue, Aug 16
2:00 PM
Tue, Aug 16
3:00 PM
Tue, Aug 16
4:00 PM
Tue, Aug 16
5:00 PM
Tue, Aug 16
6:00 PM
Tue, Aug 16
7:00 PM
Tue, Aug 16
8:00 PM
Tue, Aug 16
9:00 PM
Tue, Aug 16
10:00 PM
Tue, Aug 16
11:00 PM
Wed, Aug 17
12:00 AM
Wed, Aug 17
1:00 AM
Condition
Clear

Clear

Clear

Clear

Clear

Clouds

Clouds

Clouds

Clouds

Clouds

Clouds

Clouds

Clouds

Clouds

Clouds

Clouds

Clouds

Clouds

Clouds

Rain

Rain

Clouds

Clouds

Clouds

Clouds

Clouds

Clouds

Clouds

Clouds

Clouds

Clouds

Clouds

Clouds

Clouds

Clouds

Clouds

Clear

Clear

Clouds

Clouds

Clouds

Clouds

Clouds

Clouds

Clouds

Clouds

Clouds

Clouds
Temperature 74°F74°F74°F73°F73°F75°F80°F84°F88°F91°F94°F96°F97°F95°F92°F88°F85°F83°F81°F79°F76°F75°F74°F72°F71°F72°F72°F71°F71°F72°F76°F81°F86°F90°F93°F96°F98°F99°F99°F99°F97°F91°F87°F84°F80°F79°F78°F76°F
Feels Like 75°F75°F75°F75°F74°F76°F80°F88°F92°F96°F98°F99°F101°F99°F96°F93°F90°F88°F86°F80°F77°F77°F76°F73°F73°F73°F73°F72°F72°F73°F77°F84°F91°F95°F98°F100°F101°F101°F101°F101°F99°F93°F88°F85°F83°F79°F79°F78°F
Cloudiness 0%1%2%3%5%11%97%54%46%48%47%56%84%90%94%95%86%78%97%96%69%57%63%68%100%100%100%87%81%70%58%37%28%29%29%28%5%5%11%20%34%29%43%29%49%61%69%74%
Visibility 6 mi6 mi6 mi6 mi6 mi6 mi6 mi6 mi6 mi6 mi6 mi6 mi6 mi6 mi6 mi6 mi6 mi6 mi6 mi6 mi6 mi6 mi6 mi6 mi6 mi6 mi6 mi6 mi6 mi6 mi6 mi6 mi6 mi6 mi6 mi6 mi6 mi6 mi6 mi6 mi6 mi6 mi6 mi6 mi6 mi6 mi6 mi6 mi
Precipitation 0%0%0%0%0%0%0%0%0%0%0%0%0%0%0%0%8%19%12%36%46%49%45%46%12%3%3%3%3%3%0%0%0%0%0%0%0%0%0%0%0%0%5%15%11%11%11%11%
Humidity 94%92%90%89%89%83%72%61%53%48%43%38%36%38%47%55%62%67%71%82%92%93%91%90%90%89%90%93%94%91%81%71%59%50%44%39%35%32%30%31%34%43%46%54%65%71%75%78%
Dew Point 72°F71°F70°F70°F70°F69°F70°F70°F69°F69°F68°F66°F66°F66°F68°F69°F71°F71°F71°F72°F73°F73°F71°F69°F68°F68°F68°F68°F69°F69°F70°F71°F70°F69°F68°F67°F65°F64°F63°F63°F64°F65°F64°F65°F67°F69°F69°F69°F
Pressure 29.94"29.94"29.94"29.91"29.91"29.94"29.94"29.97"29.97"29.94"29.94"29.91"29.88"29.85"29.83"29.85"29.83"29.83"29.85"29.88"29.88"29.91"29.91"29.88"29.88"29.85"29.85"29.88"29.88"29.91"29.91"29.91"29.91"29.91"29.91"29.88"29.85"29.85"29.83"29.83"29.8"29.83"29.85"29.88"29.88"29.88"29.88"29.88"
Wind Speed 1.7 mph2 mph2.7 mph3.7 mph3.5 mph3.7 mph4.9 mph5.9 mph6.6 mph6.6 mph6.3 mph5.9 mph5.7 mph5.6 mph6.8 mph9.9 mph12.4 mph9.1 mph4.5 mph6.6 mph6.6 mph6.5 mph6.7 mph3.9 mph2.3 mph1.3 mph2.7 mph4.6 mph4.2 mph4.1 mph4.3 mph5 mph6 mph7.4 mph8.1 mph8 mph8 mph8.1 mph8.4 mph8.4 mph7.1 mph5.6 mph5.2 mph2 mph6.6 mph7.4 mph7.1 mph5.6 mph
Wind
Direction
226°
SW
245°
WSW
221°
SW
220°
SW
219°
SW
227°
SW
236°
SW
238°
WSW
243°
WSW
241°
WSW
245°
WSW
251°
WSW
256°
WSW
242°
WSW
219°
SW
208°
SSW
206°
SSW
194°
SSW
188°
S
180°
S
239°
WSW
242°
WSW
296°
WNW
287°
WNW
299°
WNW
168°
SSE
262°
W
275°
W
256°
WSW
273°
W
283°
WNW
289°
WNW
289°
WNW
285°
WNW
288°
WNW
284°
WNW
288°
WNW
292°
WNW
300°
WNW
309°
NW
327°
NNW
309°
NW
347°
NNW
324°
NW
268°
W
291°
WNW
292°
WNW
306°
NW

Daily Forecast

Date High Low Precip. Humidity
Today
Aug 15

Rain
97 °F
73 °F
49%
43%
Tuesday
Aug 16

Clouds
99 °F
71 °F
46%
44%
Wednesday
Aug 17

Rain
97 °F
73 °F
100%
39%
Thursday
Aug 18

Rain
83 °F
72 °F
100%
72%
Friday
Aug 19

Rain
85 °F
72 °F
100%
68%
Saturday
Aug 20

Rain
80 °F
73 °F
100%
70%
Sunday
Aug 21

Clouds
92 °F
70 °F
30%
45%
Monday
Aug 22

Rain
92 °F
76 °F
72%
44%
Tuesday
Aug 23

Rain
93 °F
72 °F
84%
46%
Wednesday
Aug 24

Rain
93 °F
73 °F
98%
46%
Thursday
Aug 25

Rain
93 °F
73 °F
100%
49%
Friday
Aug 26

Rain
93 °F
74 °F
100%
48%
Saturday
Aug 27

Rain
93 °F
74 °F
52%
47%
Sunday
Aug 28

Rain
93 °F
74 °F
60%
49%
Monday
Aug 29

Rain
97 °F
76 °F
40%
42%
Tuesday
Aug 30

Clear
98 °F
75 °F
37%
39%

Temperature 8-14 Day Outlook



Precipitation 8-14 Day Outlook




Quick Links
Lake Jackson News
Lake Jackson Photos
Lake Jackson Videos




About Us
Contact Us
Site Map
Search Site
Advertise With Us
   
Jackson-AL.LakesOnline.com
THE LAKE JACKSON WEBSITE

Copyright 2022, Lakes Online
Privacy    |    Legal